Weather History for Waukegan, IL

Change the Weather History Date:

Tuesday, August 14, 2012

  Actual Average Record
Temperature  
Mean Temperature 66 °F -  
Max Temperature 78 °F 79 °F 88 °F (2010)
Min Temperature 53 °F 61 °F 46 °F (2004)
Degree Days  
Heating Degree Days 0 0  
Month to date heating degree days 4 0  
Since 1 June heating degree days 52 98  
Since 1 July heating degree days 4 12  
Cooling Degree Days 1 6  
Month to date cooling degree days 86 84  
Year to date cooling degree days 805 419  
Since 1 June cooling degree days 722 394  
Growing Degree Days 14 (Base 50)    
Moisture  
Dew Point 59 °F    
Average Humidity 82    
Maximum Humidity 100    
Minimum Humidity 64    
Precipitation  
Precipitation 0.00 in 0.14 in 0.28 in (2007)
Month to date precipitation 1.08 1.80  
Year to date precipitation 16.28 22.42  
Sea Level Pressure  
Sea Level Pressure 29.92 in    
Wind  
Wind Speed 3 mph (NNE)    
Max Wind Speed 12 mph    
Max Gust Speed 15 mph    
Visibility 5 miles    
Events Fog    
T = Trace of Precipitation, MM = Missing Value Source: NWS Daily Summary

Daily Weather History Graph

Daily Weather History Graph

Search for Another Location

Airport:

Trip Planner

Search our weather history database for the weather conditions in past years. The results will help you decide how hot, cold, wet, or windy it might be!

Date:

Astronomy

Aug. 14, 2012 Rise Set
Actual Time 5:57 AM CDT 7:53 PM CDT
Civil Twilight 5:27 AM CDT 8:23 PM CDT
Nautical Twilight 4:50 AM CDT 9:00 PM CDT
Astronomical Twilight 4:10 AM CDT 9:40 PM CDT
Moon 2:53 AM CDT (8/14) 5:49 PM CDT (8/14)
Length of Visible Light 14h 56m
Length of Day
13h 55m
Waning Crescent, 9% of the Moon is Illuminated
Aug 14
Waning Crescent
Aug 17
New
Aug 24
First Quarter
Aug 31
Full
Sep 8
Last Quarter

Hourly Weather History & Observations

Time (CDT) Temp. Dew Point Humidity Pressure Visibility Wind Dir Wind Speed Gust Speed Precip Events Conditions
12:00 AM 55.4 °F 55.4 °F 100% 29.95 in 1.0 mi Calm Calm - N/A   Mist
12:04 AM 55.4 °F 55.4 °F 100% 29.95 in 2.0 mi West 3.5 mph - N/A   Partly Cloudy
12:12 AM 55.4 °F 55.4 °F 100% 29.95 in 1.0 mi Calm Calm - N/A   Mist
12:32 AM 59.0 °F 57.2 °F 94% 29.95 in 1.8 mi West 4.6 mph - N/A   Clear
12:43 AM 57.2 °F 57.2 °F 100% 29.95 in 0.8 mi Calm Calm - N/A   Mist
12:52 AM 55.9 °F 55.0 °F 97% 29.94 in 0.5 mi Calm Calm - N/A Fog Fog
1:03 AM 55.4 °F 55.4 °F 100% 29.94 in 1.2 mi Calm Calm - 0.01 in   Clear
1:24 AM 53.6 °F 53.6 °F 100% 29.93 in 0.8 mi Calm Calm - 0.01 in   Clear
1:35 AM 53.6 °F 53.6 °F 100% 29.93 in 1.5 mi Calm Calm - 0.01 in   Clear
1:45 AM 55.4 °F 53.6 °F 94% 29.93 in 0.8 mi Calm Calm - 0.01 in   Mist
1:52 AM 54.0 °F 54.0 °F 100% 29.93 in 0.5 mi Calm Calm - 0.01 in Fog Fog
2:04 AM 57.2 °F 55.4 °F 94% 29.93 in 2.0 mi West 4.6 mph - N/A   Partly Cloudy
2:13 AM 57.2 °F 57.2 °F 100% 29.94 in 4.0 mi West 4.6 mph - N/A   Clear
2:52 AM 55.9 °F 55.9 °F 100% 29.92 in 2.0 mi Calm Calm - N/A   Clear
2:59 AM 57.2 °F 55.4 °F 94% 29.94 in 1.5 mi Calm Calm - N/A   Clear
3:08 AM 55.4 °F 55.4 °F 100% 29.93 in 2.5 mi Calm Calm - N/A   Clear
3:16 AM 57.2 °F 57.2 °F 100% 29.93 in 1.8 mi Calm Calm - N/A   Partly Cloudy
3:21 AM 57.2 °F 57.2 °F 100% 29.93 in 0.8 mi Calm Calm - N/A   Mist
3:28 AM 57.2 °F 57.2 °F 100% 29.93 in 1.2 mi Calm Calm - N/A   Partly Cloudy
3:34 AM 59.0 °F 57.2 °F 94% 29.93 in 3.0 mi Calm Calm - N/A   Partly Cloudy
3:47 AM 59.0 °F 57.2 °F 94% 29.93 in 2.5 mi Calm Calm - N/A   Partly Cloudy
3:52 AM 57.9 °F 57.9 °F 100% 29.92 in 2.5 mi Calm Calm - N/A   Clear
4:10 AM 57.2 °F 57.2 °F 100% 29.93 in 3.0 mi West 3.5 mph - N/A   Clear
5:52 AM 57.9 °F 57.0 °F 97% 29.92 in 3.0 mi Calm Calm - N/A   Clear
6:52 AM 60.1 °F 57.9 °F 93% 29.91 in 3.0 mi Calm Calm - N/A   Clear
7:52 AM 64.9 °F 61.0 °F 87% 29.91 in 7.0 mi Calm Calm - N/A   Clear
8:52 AM 69.1 °F 62.1 °F 78% 29.92 in 10.0 mi WNW 3.5 mph - N/A   Clear
9:52 AM 73.0 °F 62.1 °F 68% 29.92 in 10.0 mi NW 5.8 mph - N/A   Clear
10:52 AM 75.9 °F 62.1 °F 62% 29.93 in 10.0 mi Variable 4.6 mph - N/A   Clear
11:52 AM 73.9 °F 64.0 °F 71% 29.91 in 10.0 mi East 8.1 mph - N/A   Partly Cloudy
12:52 PM 73.9 °F 64.0 °F 71% 29.92 in 10.0 mi ENE 5.8 mph - N/A   Clear
1:52 PM 75.9 °F 64.0 °F 67% 29.91 in 10.0 mi East 6.9 mph - N/A   Partly Cloudy
2:52 PM 75.9 °F 64.0 °F 67% 29.89 in 10.0 mi East 10.4 mph - N/A   Clear
3:52 PM 75.9 °F 62.1 °F 62% 29.88 in 10.0 mi ENE 8.1 mph - N/A   Scattered Clouds
4:52 PM 75.0 °F 63.0 °F 66% 29.88 in 10.0 mi East 6.9 mph - N/A   Clear
5:52 PM 73.9 °F 62.1 °F 66% 29.88 in 10.0 mi East 6.9 mph - N/A   Clear
6:52 PM 72.0 °F 62.1 °F 71% 29.89 in 10.0 mi ENE 6.9 mph - N/A   Partly Cloudy
7:52 PM 71.1 °F 63.0 °F 75% 29.88 in 10.0 mi East 3.5 mph - N/A   Overcast
8:52 PM 66.9 °F 62.1 °F 84% 29.90 in 10.0 mi Calm Calm - N/A   Partly Cloudy
9:52 PM 64.0 °F 61.0 °F 90% 29.89 in 10.0 mi Calm Calm - N/A   Clear
10:52 PM 63.0 °F 61.0 °F 93% 29.88 in 9.0 mi Calm Calm - N/A   Clear
11:52 PM 62.1 °F 61.0 °F 96% 29.88 in 8.0 mi Calm Calm - N/A   Clear